Reflectivity
-20 -20 -20 -20 -20 -20 -20 -20 -20 -20 -20 -20 -20 -20 -20 -20 -20 -20 -20 -20 -20 -20 -20 -20 -20 -20 -20 -20 -20 -20 -20 -20 -20 -20 12 13 -20 -20 10 18 18 35 33 23
-20 -20 -20 -20 -20 -20 -20 -20 -20 -20 -20 -20 -20 -20 -20 -20 -20 -20 -20 -20 -20 -20 -20 -20 -20 -20 -20 -20 -20 -20 -20 -20 -20 -20 -20 -20 5 -14 -15 -15 9 12 28 22
-20 -20 -20 -20 -20 -20 -20 -20 -20 -20 -20 -20 -20 -20 -20 -20 -20 -20 -20 -20 -20 -20 -20 -20 -20 -20 -20 -20 -20 -20 -20 -20 -20 -20 -20 -20 -20 22 6 10 7 9 8 -1
-20 -20 -20 -20 -20 -20 -20 -20 -20 -20 -20 -20 -20 -20 -20 -20 -20 -20 -20 -20 -20 -20 -20 -20 -20 -20 -20 -20 -20 -20 -20 -20 -20 -20 -20 -20 -20 -12 16 -5 -20 16 -6 -20
-20 -20 -20 -20 -20 -20 -20 -20 -20 -20 -20 -20 -20 -20 -20 -20 -20 -20 -20 -20 -20 -10 -20 -20 -20 -20 -20 -20 -20 -20 -20 -20 -18 -20 -20 -20 -20 -20 -20 9 24 26 24 16
-20 -20 -20 -20 -20 -20 -20 -20 -20 -20 -20 -20 -20 -20 -20 -20 -20 -20 -15 5 9 7 -20 -20 -20 -20 -20 -20 -20 -20 -20 -20 -20 -20 -16 -15 -20 -20 -9 2 -12 30 35 28
-20 -20 -20 -20 -20 -20 -20 -20 -20 -20 -20 -20 -20 -20 -20 -20 -20 -20 6 1 -10 -13 -20 -20 -20 -20 -20 -20 -20 -20 -20 -20 -20 -20 -20 -11 -20 -20 -20 -13 18 5 39 33
-20 -20 -20 -20 -20 -20 -20 -20 -20 -20 -20 -20 -20 -20 -20 -20 -20 -20 -20 -20 -20 -20 -20 -20 -20 -20 -20 -20 -20 -20 -20 -20 -20 -20 -10 -20 -20 -20 -19 -20 16 25 31 34
-18 -20 -20 -20 -20 -20 -20 -20 -20 -20 -20 -20 -20 -20 -20 -20 -20 -20 -20 -20 2 -20 -20 -20 -20 -20 -20 -20 -20 -20 -20 -20 -20 -16 8 -20 -20 -20 -20 -20 10 22 32 34
-12 -20 -20 -20 -20 -20 -20 -20 -20 -20 -20 -20 -20 -20 -20 -20 -20 -20 7 -19 -20 -20 -20 -20 5 1 -20 -20 -20 -20 -20 -20 -20 -20 12 -7 -20 -20 -20 -20 -20 6 22 30
-20 -20 -20 -20 -20 -20 -20 -20 -14 -20 -20 -20 -20 -20 26 -20 -9 4 33 28 5 -20 -20 2 18 -1 -20 -20 -20 -20 -20 -20 -20 -20 -4 9 -20 -20 -20 -20 -20 -20 -12 22
-20 -20 -20 -20 -20 -20 -20 28 22 7 -20 -20 -5 -20 -20 -20 -1 13 41 26 -8 18 -19 -13 9 -9 -20 -20 -20 -20 -20 -20 -20 -20 -20 -3 -20 -20 -20 -20 -20 -20 -20 -20
-20 -20 -20 -20 -20 -20 10 8 4 4 27 -14 -2 -20 -20 -7 27 15 36 29 16 38 -20 -20 4 1 -20 -20 -20 -20 -20 -20 -20 -20 -20 -5 -19 -20 -20 -20 -20 -20 -20 -20
-20 -20 -20 -20 -20 -20 -20 -13 -19 -20 -20 -20 -20 -20 -20 -20 -7 18 21 34 19 -8 -2 -20 12 18 24 30 -20 -20 -20 -20 -20 -20 -20 -20 -20 -20 -20 -20 -20 -20 -20 -20
-20 -20 -20 -20 -20 -20 -20 -20 -20 -12 -20 -20 -20 -0 -20 -7 9 14 26 30 4 -4 18 -20 30 29 25 24 22 17 -20 -20 -20 -20 -20 -20 -20 -20 -20 -20 -20 -20 -20 -20
-20 -20 -20 -20 -20 -20 -20 -20 -20 -20 -20 -20 -20 -20 26 16 5 9 9 30 18 30 25 -7 8 36 12 25 25 24 26 -20 -20 -20 -20 -20 -20 -20 -20 -20 -20 -20 -20 -20
-20 -20 -20 -20 -20 -20 -20 -20 -20 -20 -20 -20 -20 7 18 8 4 8 27 18 28 12 25 11 7 2 -4 8 21 25 27 20 -17 -20 -20 -20 -20 -20 -20 -20 -20 -20 -20 -20
-20 -16 -9 -20 -9 -20 -20 -20 -20 -20 -20 -20 -10 -20 -20 -20 -8 10 15 7 10 17 23 9 13 1 -20 11 0 18 22 27 -2 7 -20 -20 -20 -20 -20 -20 -20 -20 -20 -20
-20 -20 -20 -20 -15 -20 -20 -20 15 -3 -20 -20 -4 -15 11 -20 -3 21 22 3 -15 8 13 11 4 -20 -19 -20 -9 13 8 28 25 19 27 -3 -20 -20 -20 -20 -20 -20 10 16
-1 -20 -20 3 -20 12 -16 15 15 20 16 24 18 -12 -20 -18 -20 -20 -8 2 4 -17 -0 6 -16 -20 -20 -19 -20 6 -1 24 28 27 26 13 -18 -20 -20 -20 -20 -20 -10 -19
20 -9 -15 -20 -11 -20 -20 5 5 21 24 17 1 -20 -20 -20 -20 -20 -20 -20 -18 -20 -20 -20 -20 -20 -20 -20 -17 3 4 -9 22 20 21 22 12 -7 -16 -20 -1 17 21 10
22 21 6 7 9 -12 -16 -16 12 22 -20 -13 -11 -20 -20 -20 -20 -20 -20 -20 -20 -20 -20 -20 -20 -20 -20 -20 1 -20 5 10 20 24 21 25 26 25 7 -1 -1 -0 4 12
26 28 -9 -20 -20 -20 -20 18 26 -3 -20 -20 -20 -20 -20 -20 -20 -20 -20 -20 -20 -20 -20 -20 -20 -20 -20 -20 -20 -20 19 23 23 25 23 28 29 25 24 25 28 13 1 27
32 22 20 12 -20 -20 22 -20 14 23 -20 -20 -20 -20 -20 -20 -20 -20 -20 -20 -20 -20 -20 -20 -20 -20 -20 -20 -17 -20 -20 -9 -16 9 8 15 17 18 23 21 22 15 11 10
32 39 37 22 32 29 4 31 7 -20 -20 -20 -20 -20 -20 -20 -20 -19 -20 -20 -20 -20 -20 -20 -20 -20 -20 -19 7 -5 -3 5 -1 12 -10 -6 6 6 2 16 20 18 23 25
24 15 18 26 29 29 21 -16 -20 -20 -20 -20 -20 -20 -20 -20 -18 -20 -20 -20 -20 -20 -20 -14 6 -0 -19 -16 -15 5 16 7 9 15 18 16 18 11 17 23 22 24 24 29
Wind_Speed
3 4 7 21 10 13 4 5 12 8 14 4 11 12 12 8 11 15 19 15 12 16 4 8 13 14 14 11 11 10 9 7 7 4 3 4 8 6 5 6 14 16 13 16
5 13 17 5 9 10 10 12 17 15 13 9 14 17 18 7 11 16 21 19 16 8 6 14 15 14 15 14 12 10 9 10 6 4 3 3 3 7 7 6 10 13 15 17
13 10 8 11 10 10 14 12 12 16 7 6 5 16 11 10 9 15 19 16 17 10 13 13 15 15 14 14 14 12 11 11 8 6 5 3 3 2 7 8 8 10 14 16
12 15 17 13 12 12 20 6 13 10 6 12 8 15 15 14 16 13 16 15 15 7 15 17 16 16 17 14 11 11 11 11 9 8 7 6 4 4 4 8 9 11 14 15
8 4 8 15 17 11 19 9 12 12 7 1 4 3 19 6 18 18 14 16 17 8 16 20 22 20 15 14 12 11 10 11 10 9 7 6 5 5 3 5 9 15 12 14
8 4 4 6 7 5 4 5 3 2 2 9 4 6 20 6 10 14 17 19 18 9 13 18 13 14 13 12 11 11 12 12 11 9 8 8 8 8 8 10 9 7 14 11
8 11 6 5 7 11 6 4 4 3 2 14 5 9 16 9 15 12 17 18 20 20 11 16 18 17 16 16 14 12 14 13 12 10 8 9 9 9 12 12 9 14 9 12
5 9 5 1 7 8 9 10 8 5 8 12 4 7 6 4 7 10 12 19 20 19 15 22 21 19 18 17 16 15 15 13 13 12 9 7 7 5 3 5 6 9 9 11
3 6 3 2 2 3 5 5 11 6 3 5 6 14 11 19 7 12 14 18 24 7 11 20 18 17 17 17 17 16 15 13 14 12 10 8 6 5 5 6 7 7 8 9
3 2 4 5 5 5 3 4 1 1 4 13 6 6 9 5 11 15 14 20 27 11 2 9 16 17 16 16 14 14 13 13 14 12 10 8 8 6 6 7 7 9 9 10
5 2 5 3 4 6 7 5 6 3 4 7 6 5 6 6 4 10 18 19 15 15 10 7 8 14 14 14 14 14 13 13 13 13 11 10 8 8 7 8 9 8 10 10
3 3 3 6 7 2 1 2 4 3 6 4 6 11 7 5 6 11 12 21 18 13 11 6 7 6 15 15 15 15 13 12 12 13 12 11 9 8 10 8 9 10 10 11
5 3 3 7 3 8 7 2 5 4 2 3 4 6 11 8 5 10 6 17 17 17 16 9 8 10 10 15 15 15 14 13 12 13 13 12 11 10 10 10 10 10 11 11
2 2 5 5 2 3 7 12 9 2 2 4 8 12 17 16 3 4 9 19 12 19 19 5 3 6 8 8 13 14 14 14 14 13 13 13 11 11 10 10 11 11 10 11
3 6 5 7 6 6 11 15 14 13 12 8 9 15 17 11 6 5 6 14 18 14 9 13 3 4 10 8 6 9 14 15 14 14 15 13 12 10 9 9 9 9 10 10
4 4 3 5 5 10 16 16 14 18 17 16 17 18 9 10 11 6 2 2 10 10 13 15 13 5 9 12 10 8 9 15 16 15 14 10 12 12 11 9 9 8 6 6
2 2 3 9 6 9 13 15 14 17 16 11 16 10 3 5 6 9 7 7 8 10 12 14 13 10 15 8 16 14 8 7 13 14 14 13 12 12 11 10 10 8 10 11
4 3 2 4 2 12 8 6 13 17 15 9 3 4 5 5 8 10 6 7 8 11 12 11 11 12 11 11 7 11 10 8 9 12 15 14 13 12 11 9 12 12 11 12
14 7 1 3 4 13 18 10 2 5 7 7 4 3 5 8 10 5 6 7 8 9 9 8 8 11 12 12 10 14 14 9 6 7 9 13 14 11 13 12 13 12 14 13
11 12 7 3 3 6 4 5 4 12 3 1 2 2 3 6 3 3 2 5 7 8 9 9 8 9 12 14 13 6 4 10 7 8 7 8 13 14 14 15 14 12 13 15
3 8 14 9 4 8 10 9 12 3 3 3 3 3 3 1 2 7 3 5 7 6 8 8 8 9 11 11 10 13 12 12 9 9 13 11 12 15 16 17 14 15 15 16
4 6 6 5 4 10 4 7 2 4 3 2 1 3 5 4 5 5 6 8 10 10 10 9 7 9 10 9 9 12 13 10 10 12 15 14 13 11 12 16 15 15 16 17
6 2 2 8 6 3 4 3 3 4 2 2 2 4 3 5 7 7 5 7 9 10 8 8 8 10 10 10 8 12 9 11 11 14 15 15 15 14 12 16 14 12 12 14
4 4 2 1 4 7 6 5 1 5 4 3 3 3 1 4 6 6 6 8 7 8 8 7 8 10 10 10 12 11 10 12 15 15 15 14 15 15 14 11 9 10 10 12
3 6 5 3 4 8 9 7 13 9 7 2 8 7 7 4 9 7 8 8 8 7 8 7 8 9 10 11 12 12 12 12 14 14 13 14 13 15 15 14 11 12 12 12
3 2 3 3 9 6 12 7 12 11 3 6 8 8 10 7 9 8 8 6 6 7 8 8 9 11 10 12 12 13 12 13 14 14 12 11 12 13 14 16 16 31 26 28
Wind_Direction
232 158 199 219 207 234 206 268 268 276 276 275 265 263 279 273 293 296 293 292 282 273 258 157 137 139 135 144 145 152 152 147 133 123 129 144 163 168 176 164 167 164 168 171
269 237 224 203 222 235 245 250 265 278 269 258 267 272 276 268 275 281 276 282 284 286 177 148 148 149 153 155 158 155 156 151 147 133 126 126 128 180 175 175 176 188 172 176
214 225 199 208 232 229 240 230 254 248 264 247 293 280 282 275 264 272 266 270 280 269 183 155 165 159 152 165 167 167 163 153 150 145 122 93 89 116 180 181 189 185 181 178
242 240 249 249 242 217 259 216 252 255 272 279 182 279 277 278 270 267 265 276 273 180 192 171 169 168 169 170 161 163 164 154 151 158 155 151 161 185 189 190 197 193 186 184
231 211 215 231 241 208 253 210 232 250 260 284 245 289 275 342 288 286 279 277 284 263 185 188 182 177 164 155 162 166 162 154 157 166 166 169 184 187 203 207 204 199 186 186
240 258 267 225 263 208 302 273 226 214 176 252 215 193 276 248 262 281 286 290 291 289 206 200 170 147 149 153 160 161 164 160 155 166 168 179 194 200 203 213 214 218 180 172
271 262 240 196 255 273 193 100 304 306 279 261 222 239 262 276 273 283 299 296 303 304 199 173 162 160 161 166 168 165 168 166 162 170 180 182 188 187 196 210 199 181 189 168
204 295 160 352 181 217 218 193 202 219 244 268 243 251 255 264 320 335 331 336 311 282 193 181 171 166 164 169 170 169 168 163 163 166 189 182 167 165 165 168 177 154 162 156
173 247 31 59 259 110 289 171 210 215 173 279 247 273 307 280 17 17 331 334 344 337 184 171 160 165 165 173 175 169 166 161 163 166 178 179 161 155 139 121 133 139 146 157
153 246 43 319 323 59 86 268 65 21 206 253 259 272 254 344 4 352 350 332 340 339 198 198 168 168 170 171 166 165 166 161 157 156 172 176 169 158 145 140 135 142 141 145
35 69 299 2 70 20 352 360 8 294 161 236 263 260 183 112 73 27 338 323 319 328 348 197 232 167 163 164 164 163 162 163 160 164 164 168 176 167 157 155 146 147 146 147
332 142 296 250 295 219 132 17 329 308 324 313 265 261 272 185 115 86 312 305 312 329 337 257 176 209 165 166 169 167 165 169 165 165 169 175 170 173 166 163 155 152 157 160
342 6 345 311 36 42 69 25 1 215 232 258 271 271 3 0 103 87 332 306 315 331 325 338 156 177 228 170 172 170 168 171 166 160 173 175 179 171 173 169 164 158 160 160
10 193 188 235 301 337 301 308 319 105 243 330 279 291 312 310 334 67 25 298 316 298 302 287 144 177 178 236 176 171 173 172 170 169 171 176 179 179 174 165 164 167 165 164
161 221 232 242 258 274 280 288 291 275 267 229 272 276 296 295 269 133 86 301 297 296 340 346 186 174 180 174 208 204 174 170 171 175 183 176 173 170 170 167 162 165 168 173
347 281 243 268 302 303 294 283 279 271 266 271 265 263 326 335 261 128 185 351 359 18 3 7 360 324 183 172 184 201 220 174 170 175 179 173 159 164 164 170 171 166 153 148
300 335 22 280 323 314 282 267 255 249 248 251 263 291 20 303 133 31 40 42 10 16 12 10 357 352 326 211 174 185 188 204 181 171 176 173 165 166 169 163 164 132 103 95
230 173 147 272 261 261 265 290 275 247 236 249 192 33 295 318 87 64 38 17 12 8 12 9 354 347 346 327 203 153 161 176 201 189 173 170 173 169 161 125 110 103 102 101
208 192 206 171 220 289 304 281 48 319 217 96 103 334 318 325 187 72 38 14 17 12 7 8 360 339 349 6 321 140 145 163 166 197 195 170 169 122 113 108 109 109 106 98
221 201 190 153 203 259 224 284 343 328 186 246 257 264 336 337 48 288 21 19 21 10 10 3 10 9 6 7 2 77 43 127 117 99 72 88 109 112 108 110 106 102 100 103
173 178 206 212 231 276 272 298 304 221 156 242 283 310 346 87 216 300 10 29 32 21 10 3 16 33 14 10 37 54 60 66 77 87 90 92 103 113 119 115 115 115 110 105
251 178 174 187 170 254 351 310 205 217 216 176 172 330 322 350 358 68 23 16 14 2 6 13 38 38 28 23 54 68 65 70 81 89 91 91 94 104 109 108 114 114 113 108
353 350 225 163 207 267 295 232 252 280 239 311 320 359 18 21 42 67 65 33 15 1 356 5 42 55 37 39 56 83 81 84 88 90 90 95 97 97 100 109 114 108 110 113
268 297 218 280 39 331 323 320 182 269 250 269 307 133 60 98 62 54 30 37 35 12 7 18 58 62 61 55 61 66 77 93 98 95 95 96 95 96 88 90 88 89 99 101
287 329 314 4 319 322 2 293 270 278 268 74 62 44 57 51 60 64 49 36 29 14 21 36 60 71 73 70 68 72 79 88 90 91 91 89 85 86 85 76 77 80 74 88
199 226 48 293 244 201 232 245 255 275 20 91 97 70 43 42 66 65 59 53 53 46 47 48 59 76 72 79 78 78 83 89 92 90 85 86 89 87 86 89 85 83 89 90